Date String (YYYY-MM-DD hh:mm:ss) UTC,Instrument flags,absolute air pressure of the measurement (hPa),sample flow rate (lpm),inlet stack bypass flow (lpm),air temperature of the measurement (°C),ambient temperature measured by the external sensor (°C),aerosol sample conditioner tube jacket temperature (°C),OPC LED temperature (°C),internal box temperature (°C),relative humidity of the measurement (%),span deviation,mass concentration of particles derived from Lorenz-Mie calculation of OPC scattering (μg/m³),mass concentration of particles derived from Lorenz-Mie calculation of OPC scattering (μg/m³),mass concentration of particles derived from Lorenz-Mie calculation of OPC scattering (μg/m³)
DateTimeUTC,F1_M11,P_M11,Q1_M11,Q2_M11,T1_M11,T2_M11,T3_M11,T4_M11,T5_M11,U1_M11,ZSPAN_M11,X0_M11,X2_M11,X1_M11
2023-07-08 02:00:00,SystemResetWarning,0833.3,4.99,000.00,029.5,028.4,000.0,037.9,031.1,31.7,0001.0,0008.71,0004.97,0004.60
2023-07-08 02:01:00,SystemResetWarning,0833.2,4.99,000.00,029.5,028.4,000.0,037.9,031.1,32.0,0000.6,0008.81,0005.00,0004.60
2023-07-08 02:02:00,SystemResetWarning,0833.3,5.00,000.00,029.6,028.0,000.0,037.9,031.1,32.3,0000.6,0008.81,0005.00,0004.61
2023-07-08 02:03:00,SystemResetWarning,0833.3,5.00,000.00,029.5,026.1,000.0,037.8,030.9,32.5,0000.5,0008.83,0005.02,0004.62
2023-07-08 02:04:00,SystemResetWarning,0833.2,5.00,000.00,029.4,025.2,000.0,037.7,030.7,32.3,0000.1,0008.96,0005.05,0004.63
2023-07-08 02:05:00,SystemResetWarning,0833.4,5.00,000.00,029.3,025.2,000.0,037.7,030.4,32.6,0000.0,0008.53,0005.05,0004.64
2023-07-08 02:06:00,SystemResetWarning,0833.3,5.01,000.00,029.2,025.5,000.0,037.7,030.4,32.7,-000.0,0008.61,0005.09,0004.66
2023-07-08 02:07:00,SystemResetWarning,0833.4,5.00,000.00,029.1,025.9,000.0,037.7,030.4,32.5,0000.2,0008.64,0005.11,0004.68
2023-07-08 02:08:00,SystemResetWarning,0833.4,5.00,000.00,029.1,026.3,000.0,037.7,030.5,32.4,-000.0,0008.70,0005.14,0004.70
2023-07-08 02:09:00,SystemResetWarning,0833.5,4.99,000.00,029.1,026.7,000.0,037.7,030.5,32.2,0000.2,0008.51,0005.16,0004.72
2023-07-08 02:10:00,SystemResetWarning,0833.6,5.00,000.00,029.1,026.9,000.0,037.7,030.6,32.3,0000.5,0008.40,0005.17,0004.73
2023-07-08 02:11:00,SystemResetWarning,0833.6,5.01,000.00,029.1,027.2,000.0,037.7,030.6,32.6,0000.2,0008.44,0005.18,0004.73
2023-07-08 02:12:00,SystemResetWarning,0833.6,5.00,000.00,029.2,027.4,000.0,037.7,030.7,32.7,0000.7,0008.64,0005.20,0004.76
2023-07-08 02:13:00,SystemResetWarning,0833.6,5.00,000.00,029.2,027.5,000.0,037.7,030.7,32.8,0000.8,0008.73,0005.20,0004.77
2023-07-08 02:14:00,SystemResetWarning,0833.6,5.00,000.00,029.2,027.7,000.0,037.7,030.8,33.1,0000.6,0008.76,0005.21,0004.77
2023-07-08 02:15:00,SystemResetWarning,0833.6,4.99,000.00,029.2,027.8,000.0,037.7,030.8,33.4,0000.5,0008.64,0005.19,0004.76
2023-07-08 02:16:00,SystemResetWarning,0833.5,4.99,000.00,029.2,027.9,000.0,037.8,030.8,33.2,0000.4,0008.51,0005.19,0004.77
2023-07-08 02:17:00,SystemResetWarning,0833.5,5.00,000.00,029.3,028.0,000.0,037.8,030.9,33.3,0000.4,0008.44,0005.19,0004.78
2023-07-08 02:18:00,SystemResetWarning,0833.4,5.02,000.00,029.3,028.0,000.0,037.8,030.9,33.1,0000.0,0008.41,0005.19,0004.79
2023-07-08 02:19:00,SystemResetWarning,0833.4,4.99,000.00,029.3,028.1,000.0,037.8,030.9,33.0,0000.1,0008.43,0005.20,0004.80
2023-07-08 02:20:00,SystemResetWarning,0833.4,4.99,000.00,029.4,028.2,000.0,037.8,031.0,32.8,0000.3,0008.44,0005.20,0004.79
2023-07-08 02:21:00,SystemResetWarning,0833.4,5.00,000.00,029.4,028.2,000.0,037.8,031.0,32.7,0000.1,0008.53,0005.23,0004.80
2023-07-08 02:22:00,SystemResetWarning,0833.4,5.01,000.00,029.4,028.3,000.0,037.9,031.0,32.3,0000.3,0008.74,0005.28,0004.82
2023-07-08 02:23:00,SystemResetWarning,0833.5,5.00,000.00,029.5,028.3,000.0,037.9,031.1,32.0,0000.4,0008.65,0005.27,0004.82
2023-07-08 02:24:00,SystemResetWarning,0833.6,5.00,000.00,029.5,028.3,000.0,037.9,031.1,31.9,-000.6,0008.50,0005.28,0004.82
2023-07-08 02:25:00,SystemResetWarning,0833.6,5.00,000.00,029.5,028.3,000.0,037.9,031.1,31.9,-001.3,0008.47,0005.26,0004.82
2023-07-08 02:26:00,SystemResetWarning,0833.6,5.00,000.00,029.5,028.4,000.0,038.0,031.1,31.9,-001.3,0008.48,0005.27,0004.82
2023-07-08 02:27:00,SystemResetWarning,0833.6,5.00,000.00,029.6,028.4,000.0,038.0,031.2,31.9,-001.4,0008.70,0005.31,0004.83
2023-07-08 02:28:00,SystemResetWarning,0833.6,5.00,000.00,029.6,028.5,000.0,038.0,031.2,31.6,-001.7,0008.80,0005.33,0004.82
2023-07-08 02:29:00,SystemResetWarning,0833.6,5.00,000.00,029.6,028.5,000.0,038.0,031.2,31.5,-001.6,0008.81,0005.33,0004.81
2023-07-08 02:30:00,SystemResetWarning,0833.5,4.98,000.00,029.6,027.6,000.0,038.0,031.2,31.4,-001.5,0008.73,0005.31,0004.80
2023-07-08 02:31:00,SystemResetWarning,0833.4,5.01,000.00,029.6,025.8,000.0,037.8,030.9,31.8,-001.7,0008.81,0005.31,0004.80
2023-07-08 02:32:00,SystemResetWarning,0833.4,5.01,000.00,029.5,025.1,000.0,037.8,030.7,32.1,-001.6,0008.71,0005.29,0004.81
2023-07-08 02:33:00,SystemResetWarning,0833.4,5.01,000.00,029.3,025.2,000.0,037.8,030.4,32.0,-001.6,0008.49,0005.27,0004.80
2023-07-08 02:34:00,SystemResetWarning,0833.4,4.99,000.00,029.3,025.6,000.0,037.8,030.4,32.3,-001.9,0008.42,0005.27,0004.80
2023-07-08 02:35:00,SystemResetWarning,0833.5,5.00,000.00,029.2,026.1,000.0,037.8,030.5,31.9,-001.8,0008.42,0005.27,0004.80
2023-07-08 02:36:00,SystemResetWarning,0833.5,5.01,000.00,029.2,026.4,000.0,037.8,030.6,32.2,-001.4,0008.44,0005.28,0004.80
2023-07-08 02:37:00,SystemResetWarning,0833.5,4.99,000.00,029.2,026.8,000.0,037.8,030.6,32.4,-001.4,0008.48,0005.30,0004.81
2023-07-08 02:38:00,SystemResetWarning,0833.5,5.00,000.00,029.2,027.0,000.0,037.8,030.7,32.5,-001.4,0008.40,0005.32,0004.82
2023-07-08 02:39:00,SystemResetWarning,0833.5,4.99,000.00,029.2,027.3,000.0,037.8,030.7,32.1,-001.3,0008.24,0005.29,0004.82
2023-07-08 02:40:00,SystemResetWarning,0833.5,5.00,000.00,029.2,027.5,000.0,037.8,030.8,32.0,-001.5,0008.19,0005.28,0004.83
2023-07-08 02:41:00,SystemResetWarning,0833.6,5.01,000.00,029.3,027.6,000.0,037.8,030.8,32.1,-001.9,0008.24,0005.30,0004.84
2023-07-08 02:42:00,SystemResetWarning,0833.6,5.01,000.00,029.3,027.8,000.0,037.8,030.8,31.7,-001.6,0008.27,0005.32,0004.86
2023-07-08 02:43:00,SystemResetWarning,0833.7,5.00,000.00,029.3,027.9,000.0,037.8,030.9,31.5,-001.7,0008.19,0005.31,0004.85
2023-07-08 02:44:00,SystemResetWarning,0833.7,5.00,000.00,029.3,028.0,000.0,037.8,030.9,31.1,-001.8,0008.17,0005.29,0004.85
2023-07-08 02:45:00,SystemResetWarning,0833.7,5.00,000.00,029.3,028.0,000.0,037.9,030.9,31.2,-001.6,0008.14,0005.28,0004.84
2023-07-08 02:46:00,SystemResetWarning,0833.7,5.00,000.00,029.4,028.1,000.0,037.9,031.0,31.2,-001.6,0008.17,0005.28,0004.85
2023-07-08 02:47:00,SystemResetWarning,0833.7,5.00,000.00,029.4,028.2,000.0,037.9,031.0,31.6,-001.2,0008.43,0005.32,0004.86
2023-07-08 02:48:00,SystemResetWarning,0833.7,5.01,000.00,029.4,028.2,000.0,037.9,031.0,30.5,-000.9,0008.41,0005.31,0004.86
2023-07-08 02:49:00,SystemResetWarning,0833.7,5.00,000.00,029.5,028.2,000.0,037.9,031.0,30.1,-000.8,0008.33,0005.27,0004.85
2023-07-08 02:50:00,SystemResetWarning,0833.7,5.00,000.00,029.5,028.3,000.0,037.9,031.1,30.2,-000.5,0008.34,0005.28,0004.84
2023-07-08 02:51:00,SystemResetWarning,0833.7,5.00,000.00,029.5,028.3,000.0,038.0,031.1,30.6,-000.2,0008.44,0005.33,0004.84
2023-07-08 02:52:00,SystemResetWarning,0833.7,4.99,000.00,029.5,028.4,000.0,038.0,031.1,30.2,0000.3,0008.50,0005.33,0004.82
2023-07-08 02:53:00,SystemResetWarning,0833.7,5.00,000.00,029.6,028.4,000.0,038.0,031.2,29.9,0000.1,0008.40,0005.31,0004.81
2023-07-08 02:54:00,SystemResetWarning,0833.7,4.99,000.00,029.6,028.5,000.0,038.0,031.2,29.8,0000.0,0008.42,0005.30,0004.81
2023-07-08 02:55:00,SystemResetWarning,0833.7,4.99,000.00,029.6,028.5,000.0,038.1,031.2,29.5,0000.5,0008.49,0005.32,0004.80
2023-07-08 02:56:00,SystemResetWarning,0833.7,5.01,000.00,029.6,028.5,000.0,038.1,031.2,29.6,0000.6,0008.57,0005.34,0004.81
2023-07-08 02:57:00,SystemResetWarning,0833.7,4.99,000.00,029.6,027.0,000.0,038.0,031.1,29.8,0000.7,0008.56,0005.33,0004.80
2023-07-08 02:58:00,SystemResetWarning,0833.7,5.00,000.00,029.6,025.5,000.0,037.9,030.9,30.1,0000.3,0008.44,0005.33,0004.78
2023-07-08 02:59:00,SystemResetWarning,0833.6,5.00,000.00,029.5,025.2,000.0,037.8,030.6,30.1,0000.4,0008.43,0005.32,0004.77
